Regional Weather Roundup
Issued by NWS Charleston, WV

Home | Current Version | Previous Version | Graphics & Text | Print | Product List | Glossary On
Versions: 1 2 3 4 5 6 7 8 9 10 11 12 13 14 15 16 17 18 19 20 21 22 23 24 25 26 27
000
ASUS41 KRLX 161310
RWRRLX
West Virginia Regional Weather Roundup
National Weather Service Charleston WV
800 AM EST TUE JAN 16 2018

Note: "fair" indicates few or no clouds below 12,000 feet with no
significant weather and/or obstructions to visibility.

WVZ003-161400-
Northern Panhandle of West Virginia

CITY           SKY/WX    TMP DP  RH WIND       PRES   REMARKS
WHEELING       LGT SNOW  25  22  88 SW6       30.34S FOG
$$

WVZ009-161400-
Northwest West Virginia

CITY           SKY/WX    TMP DP  RH WIND       PRES   REMARKS
PARKERSBURG    LGT SNOW  24  21  88 W8        30.42R FOG
$$

WVZ006-161400-
Western West Virginia

CITY           SKY/WX    TMP DP  RH WIND       PRES   REMARKS
HUNTINGTON     LGT SNOW  23  19  85 N8        30.43R FOG
$$

WVZ015-161400-
West Central West Virginia

CITY           SKY/WX    TMP DP  RH WIND       PRES   REMARKS
CHARLESTON     LGT SNOW  29  26  89 W3        30.39R FOG
$$

WVZ022-031-161400-
North Central West Virginia

CITY           SKY/WX    TMP DP  RH WIND       PRES   REMARKS
CLARKSBURG     LGT SNOW  30  27  88 W3        30.35S FOG
MORGANTOWN     CLOUDY    29  26  89 CALM      30.36S FOG
$$

WVZ025-035-042-045-161400-
Southern West Virginia

CITY           SKY/WX    TMP DP  RH WIND       PRES   REMARKS
BECKLEY        CLOUDY    32  21  64 S3        30.28F
LOGAN          CLOUDY    28  27  93 CALM      30.34R
BLUEFIELD      CLOUDY    31  20  63 SW3       30.29S
LEWISBURG      CLOUDY    25  21  85 CALM      30.33R
$$

WVZ047-161400-
Northern Mountains of West Virginia

CITY           SKY/WX    TMP DP  RH WIND       PRES   REMARKS
ELKINS         CLOUDY    30  28  92 CALM      30.30S FOG
$$

WVZ052-161400-
Eastern Panhandle of West Virginia

CITY           SKY/WX    TMP DP  RH WIND       PRES   REMARKS
MARTINSBURG    CLOUDY    26  22  84 N3        30.42R FOG
PETERSBURG     CLOUDY    22  17  82 CALM      30.39S
$$




USA.gov is the U.S. government's official web portal to all federal, state and local government web resources and services.